Location: Arcones
(41.1182°N, 3.7238°W)
Time: 15:35:26
(UTC+00:00)

Cosmos 1937 Rocket - Pass Details

Date: 11 December 2025
Orbit: 743 x 775 km, 74.0° (Epoch: 16 January)

Event Time Altitude Azimuth Distance (km) Brightness Sun altitude
Rises 18:38:52 0° 190° (S) 3,204 7.0 -20.5°
Reaches altitude 10° 18:41:15 10° 188° (S) 2,278 6.2 -20.9°
Maximum altitude 18:46:22 67° 106° (ESE) 815 3.3 -21.8°
Enters shadow 18:47:41 48° 45° (NE) 984 3.7 -22.1°
